When you browse on this site, cookies collect data to enhance your experience and personalize the content and advertising you see.
Visit our Privacy Policy to learn more. By continuing to use the site, you agree to this use of cookies and data.
  • In Österreich
  • Länderverzeichnis
  • Für 7 Tage
  • Wassertemperatur
  • Satellitenkarten
  • Wetterkarte
  • News
  • Widgets
  • user-avatar
    Anmelden

    Stündliche Wetter Sugar Land

    Heute, 19 Februar, Dienstag

    Zeit Temperatur Niederschläge Wind Luftdruck Luftfeuchtigkeit
    00:00 +12°C° 0 mm 4 m/S 763 mmHg 52%
    01:00 +11°C° 0 mm 4 m/S 763 mmHg 56%
    02:00 +10°C° 0 mm 5 m/S 762 mmHg 59%
    03:00 +10°C° 0 mm 5 m/S 762 mmHg 63%
    04:00 +10°C° 0.3 mm 5 m/S 761 mmHg 69%
    05:00 +9°C° 0.3 mm 6 m/S 761 mmHg 74%
    06:00 +8°C° 0 mm 6 m/S 761 mmHg 76%
    07:00 +8°C° 0.6 mm 5 m/S 760 mmHg 79%
    08:00 +8°C° 0.6 mm 5 m/S 760 mmHg 82%
    09:00 +8°C° 0.6 mm 5 m/S 759 mmHg 85%
    10:00 +8°C° 0.8 mm 5 m/S 759 mmHg 86%
    11:00 +8°C° 0.8 mm 4 m/S 759 mmHg 87%
    12:00 +8°C° 0.8 mm 4 m/S 758 mmHg 89%
    13:00 +8°C° 0.5 mm 4 m/S 757 mmHg 89%
    14:00 +9°C° 0.5 mm 3 m/S 756 mmHg 90%
    15:00 +10°C° 0.5 mm 3 m/S 756 mmHg 90%
    16:00 +10°C° 0.1 mm 3 m/S 755 mmHg 90%
    17:00 +11°C° 0.1 mm 3 m/S 755 mmHg 91%
    18:00 +12°C° 0.1 mm 2 m/S 755 mmHg 91%
    19:00 +12°C° 0 mm 2 m/S 755 mmHg 91%
    20:00 +12°C° 0 mm 2 m/S 755 mmHg 92%
    21:00 +13°C° 0 mm 2 m/S 755 mmHg 92%
    22:00 +13°C° 0 mm 2 m/S 755 mmHg 93%
    23:00 +12°C° 0 mm 3 m/S 755 mmHg 95%

    Morgen, 20 Februar, Mittwoch

    Zeit Temperatur Niederschläge Wind Luftdruck Luftfeuchtigkeit
    00:00 +12°C° 0 mm 3 m/S 755 mmHg 96%
    01:00 +12°C° 0.1 mm 3 m/S 756 mmHg 94%
    02:00 +12°C° 0.1 mm 4 m/S 756 mmHg 93%
    03:00 +11°C° 0.1 mm 4 m/S 756 mmHg 91%
    04:00 +11°C° 0 mm 4 m/S 756 mmHg 90%
    05:00 +11°C° 0 mm 4 m/S 757 mmHg 90%
    06:00 +11°C° 0 mm 3 m/S 757 mmHg 89%
    07:00 +11°C° 0 mm 4 m/S 758 mmHg 87%
    08:00 +11°C° 0 mm 4 m/S 758 mmHg 85%
    09:00 +10°C° 0 mm 5 m/S 759 mmHg 83%
    10:00 +13°C° 0 mm 5 m/S 759 mmHg 76%
    11:00 +15°C° 0 mm 5 m/S 759 mmHg 68%
    12:00 +17°C° 0 mm 5 m/S 759 mmHg 61%
    13:00 +19°C° 0 mm 4 m/S 758 mmHg 55%
    14:00 +20°C° 0 mm 4 m/S 758 mmHg 49%
    15:00 +21°C° 0 mm 4 m/S 757 mmHg 44%
    16:00 +20°C° 0 mm 3 m/S 757 mmHg 46%
    17:00 +19°C° 0 mm 3 m/S 757 mmHg 48%
    18:00 +18°C° 0 mm 2 m/S 758 mmHg 50%
    19:00 +17°C° 0 mm 2 m/S 758 mmHg 51%
    20:00 +16°C° 0 mm 2 m/S 759 mmHg 52%
    21:00 +15°C° 0 mm 2 m/S 759 mmHg 53%
    22:00 +15°C° 0 mm 2 m/S 759 mmHg 56%
    23:00 +15°C° 0 mm 2 m/S 759 mmHg 59%

    übermorgen, 21 Februar, Donnerstag

    Zeit Temperatur Niederschläge Wind Luftdruck Luftfeuchtigkeit
    00:00 +15°C° 0 mm 2 m/S 759 mmHg 62%
    01:00 +15°C° 0 mm 2 m/S 759 mmHg 64%
    02:00 +15°C° 0 mm 2 m/S 758 mmHg 66%
    03:00 +15°C° 0 mm 2 m/S 758 mmHg 69%
    04:00 +15°C° 0.8 mm 2 m/S 758 mmHg 74%
    05:00 +14°C° 0.8 mm 3 m/S 758 mmHg 79%
    06:00 +14°C° 0.8 mm 3 m/S 758 mmHg 85%
    07:00 +14°C° 0.8 mm 3 m/S 758 mmHg 85%
    08:00 +14°C° 0.8 mm 3 m/S 759 mmHg 86%
    09:00 +14°C° 0.8 mm 4 m/S 759 mmHg 87%
    10:00 +14°C° 0.2 mm 4 m/S 759 mmHg 87%
    11:00 +14°C° 0.2 mm 4 m/S 759 mmHg 86%
    12:00 +14°C° 0.2 mm 4 m/S 759 mmHg 86%
    13:00 +14°C° 0.1 mm 4 m/S 758 mmHg 87%
    14:00 +14°C° 0.1 mm 3 m/S 758 mmHg 88%
    15:00 +14°C° 0.1 mm 3 m/S 757 mmHg 89%
    16:00 +14°C° 0 mm 3 m/S 757 mmHg 89%
    17:00 +14°C° 0 mm 3 m/S 757 mmHg 90%
    18:00 +14°C° 0 mm 3 m/S 757 mmHg 90%
    19:00 +14°C° 0 mm 3 m/S 758 mmHg 92%
    20:00 +14°C° 0 mm 3 m/S 758 mmHg 94%
    21:00 +14°C° 0 mm 3 m/S 758 mmHg 95%
    22:00 +14°C° 0 mm 3 m/S 758 mmHg 96%
    23:00 +16°C° 0 mm 3 m/S 758 mmHg 96%

    22 Februar, Freitag

    Zeit Temperatur Niederschläge Wind Luftdruck Luftfeuchtigkeit
    00:00 +16°C° 0 mm 3 m/S 758 mmHg 96%
    01:00 +16°C° 0.1 mm 3 m/S 758 mmHg 97%
    02:00 +16°C° 0.1 mm 3 m/S 758 mmHg 97%
    03:00 +16°C° 0.1 mm 2 m/S 757 mmHg 97%
    04:00 +17°C° 0.6 mm 2 m/S 757 mmHg 97%
    05:00 +17°C° 0.6 mm 2 m/S 757 mmHg 98%
    06:00 +17°C° 0.6 mm 2 m/S 758 mmHg 98%
    07:00 +18°C° 1 mm 2 m/S 758 mmHg 98%
    08:00 +19°C° 1 mm 2 m/S 758 mmHg 97%
    09:00 +20°C° 1 mm 2 m/S 759 mmHg 97%
    10:00 +21°C° 0.2 mm 3 m/S 759 mmHg 94%
    11:00 +23°C° 0.2 mm 4 m/S 759 mmHg 91%
    12:00 +25°C° 0.2 mm 4 m/S 758 mmHg 88%
    13:00 +26°C° 0.1 mm 5 m/S 758 mmHg 82%
    14:00 +27°C° 0.1 mm 6 m/S 757 mmHg 76%
    15:00 +28°C° 0.1 mm 6 m/S 756 mmHg 70%
    16:00 +27°C° 0 mm 6 m/S 756 mmHg 76%
    17:00 +26°C° 0 mm 5 m/S 756 mmHg 81%
    18:00 +25°C° 0 mm 4 m/S 756 mmHg 87%
    19:00 +23°C° 0 mm 4 m/S 757 mmHg 90%
    20:00 +23°C° 0 mm 4 m/S 757 mmHg 92%
    21:00 +22°C° 0 mm 4 m/S 757 mmHg 95%
    22:00 +22°C° 0 mm 4 m/S 757 mmHg 95%
    23:00 +22°C° 0 mm 4 m/S 757 mmHg 95%

    23 Februar, Samstag

    Zeit Temperatur Niederschläge Wind Luftdruck Luftfeuchtigkeit
    00:00 +23°C° 0 mm 5 m/S 757 mmHg 95%
    01:00 +23°C° 0 mm 5 m/S 756 mmHg 94%
    02:00 +23°C° 0 mm 6 m/S 756 mmHg 93%
    03:00 +23°C° 0 mm 7 m/S 755 mmHg 92%
    04:00 +23°C° 0.1 mm 7 m/S 755 mmHg 92%
    05:00 +23°C° 0.1 mm 7 m/S 755 mmHg 91%
    06:00 +23°C° 0.1 mm 8 m/S 755 mmHg 91%
    07:00 +23°C° 0 mm 8 m/S 756 mmHg 90%
    08:00 +23°C° 0 mm 8 m/S 757 mmHg 90%
    09:00 +23°C° 0 mm 8 m/S 757 mmHg 89%
    10:00 +24°C° 0.1 mm 7 m/S 758 mmHg 78%
    11:00 +26°C° 0.1 mm 7 m/S 758 mmHg 67%
    12:00 +27°C° 0.1 mm 7 m/S 758 mmHg 56%
    13:00 +26°C° 0 mm 7 m/S 758 mmHg 51%
    14:00 +24°C° 0 mm 6 m/S 758 mmHg 46%
    15:00 +24°C° 0 mm 6 m/S 758 mmHg 42%
    16:00 +22°C° 0 mm 5 m/S 758 mmHg 43%
    17:00 +21°C° 0 mm 4 m/S 759 mmHg 44%
    18:00 +19°C° 0 mm 3 m/S 759 mmHg 45%
    19:00 +19°C° 0 mm 2 m/S 760 mmHg 44%
    20:00 +19°C° 0 mm 2 m/S 760 mmHg 43%
    21:00 +19°C° 0 mm 1 m/S 761 mmHg 42%
    22:00 +19°C° 0 mm 1 m/S 761 mmHg 43%
    23:00 +18°C° 0 mm 1 m/S 761 mmHg 43%

    24 Februar, Sonntag

    Zeit Temperatur Niederschläge Wind Luftdruck Luftfeuchtigkeit
    00:00 +17°C° 0 mm 2 m/S 761 mmHg 44%
    01:00 +16°C° 0 mm 2 m/S 761 mmHg 44%
    02:00 +15°C° 0 mm 2 m/S 762 mmHg 44%
    03:00 +15°C° 0 mm 2 m/S 762 mmHg 43%
    04:00 +14°C° 0 mm 2 m/S 762 mmHg 45%
    05:00 +14°C° 0 mm 2 m/S 762 mmHg 46%
    06:00 +13°C° 0 mm 2 m/S 763 mmHg 47%
    07:00 +14°C° 0 mm 2 m/S 763 mmHg 48%
    08:00 +15°C° 0 mm 2 m/S 764 mmHg 49%
    09:00 +16°C° 0 mm 2 m/S 764 mmHg 50%
    10:00 +18°C° 0 mm 2 m/S 764 mmHg 45%
    11:00 +19°C° 0 mm 2 m/S 764 mmHg 40%
    12:00 +21°C° 0 mm 2 m/S 764 mmHg 35%
    13:00 +23°C° 0 mm 2 m/S 763 mmHg 33%
    14:00 +24°C° 0 mm 1 m/S 763 mmHg 31%
    15:00 +24°C° 0 mm 1 m/S 762 mmHg 29%
    16:00 +23°C° 0 mm 1 m/S 762 mmHg 33%
    17:00 +22°C° 0 mm 1 m/S 762 mmHg 37%
    18:00 +20°C° 0 mm 2 m/S 762 mmHg 41%
    19:00 +19°C° 0 mm 2 m/S 762 mmHg 44%
    20:00 +17°C° 0 mm 2 m/S 762 mmHg 47%
    21:00 +16°C° 0 mm 2 m/S 763 mmHg 50%
    22:00 +16°C° 0 mm 2 m/S 763 mmHg 50%
    23:00 +16°C° 0 mm 1 m/S 763 mmHg 51%
    Mehr zeigen